Location: Newark
(3.0500°N, 36.0167°E)
Time: 04:39:28
(UTC+00:00)

Transit 2A Rocket - Pass Details

Date: 21 August 2019
Orbit: 593 x 910 km, 66.7° (Epoch: 14 October)

Event Time Altitude Azimuth Distance (km) Brightness Sun altitude
Rises 16:46:30 0° 235° (SW) 3,533 9.1 -15.8°
Reaches altitude 10° 16:50:13 10° 257° (WSW) 2,579 8.7 -16.7°
Maximum altitude 16:53:29 15° 290° (WNW) 2,216 8.5 -17.5°
Drops below altitude 10° 16:56:42 10° 324° (NW) 2,521 8.4 -18.3°
Sets 17:00:18 0° 347° (NNW) 3,406 8.7 -19.1°
